Location: Star Hoppers Observatory
(42.7905°N, 83.6127°W)
Time: 22:26:09
(UTC-04:00)

NOSS 3-1 (A) - Visible Passes

Search period start: 23 September 2014 00:00
Search period end: 03 October 2014 00:00
Orbit: 896 x 1317 km, 63.4° (Epoch: 26 August)

Date Brightness Start Highest point End Pass type
(mag) Time Alt. Az. Time Alt. Az. Time Alt. Az.
23 Sep 4.7 06:14:55 10° S 06:20:32 41° ESE 06:26:36 10° NE visible
24 Sep 5.5 05:31:25 10° SSE 05:36:13 25° ESE 05:41:19 10° ENE visible
25 Sep 5.9 04:48:57 10° SE 04:52:03 14° ESE 04:55:15 10° ENE visible
25 Sep 3.6 06:35:43 10° SSW 06:41:48 88° SE 06:48:30 10° NE visible
26 Sep 4.1 05:51:22 10° SSW 05:57:15 56° ESE 06:03:40 10° NE visible
27 Sep 4.8 05:08:19 14° S 05:12:51 34° ESE 05:18:37 10° NE visible
28 Sep 5.4 04:25:50 15° SE 04:28:36 21° ESE 04:33:08 10° ENE visible
28 Sep 3.5 06:13:20 14° SW 06:18:42 72° NW 06:25:24 10° NNE visible
29 Sep 5.9 03:43:15 11° ESE 03:44:29 11° ESE 03:46:12 10° E visible
29 Sep 3.6 05:30:45 29° SSW 05:34:02 75° ESE 05:40:40 10° NE visible
30 Sep 4.2 04:48:04 39° SSE 04:49:33 46° ESE 04:55:46 10° NE visible
30 Sep 4.2 06:35:33 13° WSW 06:40:35 38° NW 06:46:53 10° NNE visible
01 Oct 4.9 04:05:18 28° ESE 04:05:18 28° ESE 04:10:35 10° NE visible
01 Oct 3.7 05:52:47 31° WSW 05:55:39 56° NW 06:02:16 10° NNE visible
02 Oct 5.8 03:22:28 15° E 03:22:28 15° E 03:24:48 10° ENE visible
02 Oct 3.3 05:09:57 67° SW 05:10:53 84° NW 05:17:36 10° NE visible
02 Oct 4.9 06:57:54 10° W 07:02:54 23° NNW 07:08:17 10° NNE visible
